Regional Weather Roundup
Issued by NWS Cleveland, OH

Home | Current Version | Previous Version | Text Only | Print | Product List | Glossary Off
Versions: 1 2 3 4 5 6 7 8 9 10 11 12 13 14 15 16 17 18 19 20 21 22 23 24 25 26 27 28 29 30 31 32 33 34 35 36 37 38 39 40 41 42 43 44 45 46 47 48 49 50

000
ASUS41 KCLE 231810
RWRCLE
OHIO REGIONAL WEATHER ROUNDUP
NATIONAL WEATHER SERVICE WILMINGTON, OH
200 PM EDT MON OCT 23 2017

NOTE: "FAIR" INDICATES FEW OR NO CLOUDS BELOW 12,000 FEET WITH NO
SIGNIFICANT WEATHER AND/OR OBSTRUCTIONS TO VISIBILITY.

OHZ001>008-015>018-024>027-034-035-043-044-231900-
   NORTHWEST OHIO

CITY           SKY/WX    TMP DP  RH WIND       PRES   REMARKS
DEFIANCE       LGT RAIN  64  58  80 SE7       29.65F
FINDLAY        LGT RAIN  64  60  87 SE15      29.67F
TOLEDO EXPRESS LGT RAIN  63  63 100 SE9       29.67F FOG
TOLEDO EXEC    LGT RAIN  64  61  90 SE13      29.70F FOG
LIMA           LGT RAIN  63  62  97 SE17G24   29.66F FOG
$$

OHZ009>014-019>023-028>033-038-089-231900-
   NORTHEAST OHIO

CITY           SKY/WX    TMP DP  RH WIND       PRES   REMARKS
CLE-HOPKINS    CLOUDY    67  58  72 SE18G28   29.80F
CLE-LAKEFRONT  CLOUDY    68  56  65 SE21G29   29.77F
CUY CO. ARPT   CLOUDY    66  59  77 SE14      29.80F
LORAIN-ELYRIA  NOT AVBL
ASHTABULA      PTSUNNY   68  58  70 SE18G29   29.85F
AKRON-CANTON   LGT RAIN  64  59  83 SE15G25   29.82F
WOOSTER        CLOUDY    62  60  93 SE15      29.78F
MANSFIELD      CLOUDY    64  62  93 SE16      29.74F
YOUNGSTOWN     CLOUDY    67  57  70 SE15G24   29.86F
$$

OHZ042-051>053-060>062-070>072-077>081-231900-
  SOUTHWEST OHIO

CITY           SKY/WX    TMP DP  RH WIND       PRES   REMARKS
CINC-COVINGTON LGT RAIN  62  62 100 SE15      29.72F
CINC-LUNKEN    LGT RAIN  63  62  97 VRB7      29.74F
HAMILTON       LGT RAIN  64  60  87 S7        29.73F
DAYTON         CLOUDY    63  61  93 S10       29.69F
WRIGHT-PAT AFB PTSUNNY   64  62  91 S5        29.69F
DAYTON GENERAL CLOUDY    63  58  83 S13       29.70F
WILMINGTON     LGT RAIN  62  61  96 S12       29.73F
$$

OHZ036-037-039>041-045>050-054>059-063>069-073>076-082>088-231900-
  CENTRAL AND SOUTHEAST OHIO

CITY           SKY/WX    TMP DP  RH WIND       PRES   REMARKS
COLUMBUS       LGT RAIN  65  64  97 SE17G28   29.71F FOG
OSU AIRPORT    RAIN      64  64 100 SE14      29.71F FOG
BOLTON FIELD   LGT RAIN  64  63  94 S12G22    29.72F FOG
RICKENBACK AFB CLOUDY    64  64  99 SE9G21    29.70F
NEWARK         LGT RAIN  66  62  87 SE15G24   29.73F
MARION         PTSUNNY   65  61  87 S20G31    29.70F
LANCASTER      LGT RAIN  65  64  97 SE17G26   29.72F
ZANESVILLE     LGT RAIN  63  61  93 SE13      29.79F FOG
NEW PHILLY     RAIN      63  61  93 SE10      29.83F FOG
$$




USA.gov is the U.S. government's official web portal to all federal, state and local government web resources and services.